Temperature
22 22 22 23 20 18 20 22 25 26 25 25 25 24 23 23 22 21 20 21 22 21 21 21 21 21 21 21 21 21 21 20 20 20 20 20 20 20 19 19 19 19 19 19 19 19 19 19 19
22 22 22 22 18 19 20 23 25 25 25 25 24 24 23 22 21 20 20 21 22 21 21 21 21 21 21 21 21 21 20 20 20 20 20 20 20 19 19 19 19 19 19 19 19 19 19 19 19
22 22 22 18 19 20 22 24 25 25 25 24 23 23 22 21 20 20 21 21 21 21 21 21 21 21 21 21 20 20 20 20 20 20 20 20 19 19 19 19 19 19 19 19 19 19 19 19 19
22 22 22 18 21 21 23 24 25 25 24 23 23 21 21 21 21 21 21 21 21 21 21 21 21 21 21 20 20 20 20 20 20 20 20 19 19 19 19 19 19 19 19 19 19 19 19 19 19
22 22 19 19 21 22 24 25 25 24 23 23 22 21 20 21 21 21 21 21 21 21 21 21 20 20 20 20 20 20 20 20 20 19 19 19 19 19 19 19 19 19 19 19 19 19 19 19 18
22 19 18 19 21 23 24 25 25 23 23 22 21 20 20 20 21 20 21 21 21 21 20 20 20 20 20 20 20 20 20 19 19 19 19 19 19 19 19 19 19 19 19 19 19 19 19 19 18
21 18 19 21 22 23 24 25 24 23 22 22 21 20 20 20 20 20 20 20 20 20 20 20 20 20 20 20 20 19 19 19 19 19 19 19 19 19 19 19 19 19 19 19 19 19 18 18 18
23 18 20 21 23 23 24 24 23 22 22 22 22 20 20 20 20 20 20 20 20 20 20 20 20 20 19 19 19 19 19 19 19 19 19 19 19 18 18 18 18 18 18 18 18 18 18 18 18
23 18 19 21 23 23 23 23 22 22 21 21 21 21 20 20 20 19 19 19 19 19 19 19 19 19 19 19 19 19 19 19 19 18 18 18 18 18 18 18 18 18 18 18 18 18 18 18 18
22 18 20 22 23 23 23 22 22 21 20 20 20 20 20 20 20 19 19 19 19 19 19 19 19 19 19 19 19 19 19 18 18 18 18 18 18 18 18 18 18 18 18 18 18 18 18 18 18
22 21 22 23 24 24 23 22 22 21 20 20 20 19 19 19 19 19 19 19 19 19 19 19 19 19 19 19 19 18 18 18 18 18 18 18 18 17 17 17 17 17 18 18 18 18 18 18 18
22 23 24 24 25 24 22 21 21 21 20 21 20 20 19 19 19 19 19 19 18 18 18 18 19 18 18 18 18 18 18 18 18 18 17 17 17 17 17 17 17 17 17 17 18 17 17 17 17
22 22 24 24 24 23 21 20 19 19 20 20 19 19 19 19 18 18 18 18 18 18 18 18 18 18 18 18 18 18 18 18 18 17 17 17 17 17 17 17 17 17 17 17 17 17 17 17 17
23 23 23 23 23 22 20 19 19 18 19 19 19 19 18 18 18 18 18 18 18 18 18 18 18 18 18 17 17 17 17 17 17 17 17 17 17 17 17 17 17 17 17 17 17 17 17 17 17
24 22 22 22 23 22 21 19 18 18 19 19 19 18 18 18 18 18 18 18 18 17 17 17 17 17 17 17 17 17 17 17 17 17 17 17 17 17 16 16 16 16 16 17 17 17 17 17 17
22 21 21 21 21 22 20 18 18 18 18 18 18 18 18 17 17 17 17 18 17 17 17 17 17 17 17 17 17 17 16 16 16 16 16 16 16 16 16 16 16 16 16 16 16 16 16 17 16
20 20 21 21 21 21 19 18 18 18 18 18 18 17 17 17 17 17 17 17 17 17 17 17 17 17 17 16 16 16 16 16 16 16 16 16 16 16 16 16 16 16 16 16 16 16 16 16 16
20 20 21 20 20 20 18 18 18 18 18 17 17 17 17 17 16 17 17 17 17 17 17 17 16 16 16 16 16 16 16 16 16 16 16 15 15 16 15 16 16 16 16 16 16 16 16 16 16
21 21 20 20 20 20 19 18 18 17 17 17 17 17 16 16 16 16 17 17 17 16 16 16 16 16 16 16 16 16 15 15 15 15 15 15 15 15 15 15 15 15 16 16 16 16 15 15 15
21 20 20 20 20 20 18 18 18 17 17 17 17 16 16 16 16 16 16 16 16 16 16 16 16 16 16 15 15 15 15 14 14 14 14 14 14 14 14 15 15 15 15 15 15 15 15 15 15
21 20 20 20 20 19 18 18 17 17 17 17 17 17 16 16 16 16 16 16 16 16 16 16 15 15 15 15 15 14 14 14 14 14 14 14 14 14 14 14 14 14 14 15 15 15 14 14 14
21 22 21 21 19 17 18 17 17 16 16 16 16 16 16 16 16 16 16 15 16 16 15 15 15 15 15 14 14 14 14 14 14 13 13 13 13 13 13 14 14 14 14 14 14 14 14 14 14
22 22 21 21 18 17 17 17 16 16 16 16 16 16 16 16 16 15 15 15 15 15 15 15 14 14 14 14 14 14 13 13 13 13 13 13 13 13 13 13 13 13 13 13 13 13 13 13 13
22 21 20 17 16 17 17 17 16 15 16 16 16 16 16 15 15 15 15 14 14 14 14 14 14 14 13 13 13 13 13 13 13 12 12 12 12 12 12 12 12 12 12 12 13 13 13 13 13
21 18 17 17 16 16 17 17 16 16 16 16 16 15 15 15 15 14 14 14 14 14 14 14 13 13 13 13 13 12 12 12 12 12 12 11 11 11 11 11 11 12 12 12 12 12 12 12 12
20 18 17 17 17 16 17 16 16 16 16 16 15 15 15 14 14 14 14 14 14 13 13 13 13 13 12 12 12 12 12 12 11 11 11 11 11 11 11 11 11 11 11 11 11 11 11 11 11
20 18 17 16 17 16 16 16 16 15 15 15 14 14 14 14 14 14 13 13 13 13 13 13 12 12 12 12 11 11 11 11 11 11 11 11 10 10 10 10 10 10 10 11 11 11 11 11 11
19 18 16 16 16 16 17 16 15 15 14 14 14 13 13 13 13 13 13 13 13 13 12 12 12 12 11 11 11 11 11 11 10 10 10 10 10 10 10 10 10 10 10 10 10 10 10 10 10
19 18 16 14 15 16 16 15 16 15 14 13 13 13 13 13 13 13 13 13 12 12 12 12 11 11 11 11 11 10 10 10 10 10 10 10 9 9 9 9 9 9 9 9 10 10 10 10 10
19 19 16 16 16 15 15 15 16 14 14 14 13 13 13 13 13 13 12 12 12 12 11 11 11 11 10 10 10 10 10 10 10 9 9 9 9 9 9 9 9 9 9 9 9 9 9 9 9
Wind_Speed
8 7 1 4 5 4 4 6 4 1 5 7 14 15 13 8 5 7 6 15 18 16 18 20 20 20 19 19 19 18 18 18 18 18 18 17 17 17 16 15 15 14 14 13 13 13 13 13 13
4 2 4 5 5 1 5 5 1 4 10 11 13 13 11 9 8 10 9 16 19 17 18 19 20 20 19 19 19 18 18 17 17 17 16 16 16 15 15 14 14 13 13 13 12 12 11 11 11
3 1 4 4 3 4 4 2 6 10 7 7 8 8 7 6 8 6 11 18 16 15 17 19 21 20 20 19 19 18 18 17 17 16 15 15 15 14 14 13 13 12 12 12 11 10 9 9 8
3 5 5 3 5 7 6 5 5 10 8 9 10 8 5 5 5 12 18 19 17 13 16 20 21 20 20 19 19 18 17 17 16 15 15 14 14 13 13 12 12 11 11 11 10 9 8 7 6
4 4 4 3 6 6 4 4 5 10 6 10 13 9 6 6 16 20 18 18 17 12 14 18 20 20 20 19 18 18 17 16 15 15 14 13 13 12 12 11 11 10 10 9 9 8 7 5 4
4 4 3 3 6 5 2 3 10 15 13 12 12 10 5 7 14 16 17 15 15 14 13 17 19 19 19 18 18 17 17 16 15 14 14 13 12 11 11 10 10 9 9 8 8 7 6 4 2
3 3 2 4 5 5 2 1 9 12 10 5 7 8 6 6 11 15 16 15 13 13 13 13 15 16 17 17 17 17 16 16 15 14 13 13 12 10 10 9 9 9 8 7 7 6 5 3 2
5 3 4 4 3 4 2 3 7 10 8 5 5 9 9 10 13 16 14 14 13 10 9 10 12 13 13 14 15 15 15 14 14 13 12 12 11 10 9 9 9 8 8 7 6 6 5 4 3
4 3 3 4 3 2 1 6 5 6 9 5 4 6 11 16 18 17 14 11 10 10 8 8 9 11 12 12 13 13 14 13 12 11 11 10 9 8 8 8 9 9 8 7 6 6 5 5 5
5 3 7 5 2 2 2 7 7 7 10 8 10 12 15 16 17 17 15 12 10 10 8 7 8 9 10 10 11 10 10 11 10 9 9 8 7 7 7 8 9 10 9 7 6 7 7 6 6
5 7 5 3 1 4 5 5 5 11 8 11 17 18 16 15 13 14 12 11 9 9 8 6 6 8 8 7 8 7 7 8 8 9 9 7 5 5 5 6 8 9 8 7 6 7 7 6 6
4 7 4 3 1 3 5 5 7 7 8 12 16 17 14 14 12 13 13 10 9 9 7 6 5 6 6 8 7 6 5 6 5 5 7 6 3 2 3 4 6 7 6 6 6 5 6 6 7
5 6 3 2 7 10 13 10 9 8 12 13 14 15 15 14 10 9 10 10 9 9 7 6 6 5 5 5 4 4 4 5 6 5 6 6 4 2 2 2 4 5 5 5 5 5 5 5 6
5 3 1 2 6 7 14 8 8 8 12 13 13 12 12 12 11 9 9 9 8 8 7 5 6 6 6 4 3 3 4 5 5 5 5 6 5 3 3 2 2 2 4 4 4 4 4 4 3
1 1 3 2 3 4 11 9 6 10 12 13 12 11 11 9 10 9 9 9 8 8 7 6 6 5 5 4 4 4 5 5 4 4 4 4 3 3 3 2 1 1 3 3 2 3 3 2 2
4 3 1 3 1 2 9 6 6 8 12 12 11 12 11 8 9 8 9 9 8 8 7 5 5 5 5 5 4 4 5 5 4 4 3 3 3 3 3 1 0 1 1 1 1 1 1 1 2
5 1 2 3 2 2 6 6 8 8 11 12 12 12 12 10 9 8 8 9 8 8 7 6 5 5 4 4 5 5 5 4 4 5 4 3 3 3 2 1 0 1 1 1 1 0 1 1 2
4 2 2 2 2 4 6 7 10 9 10 11 12 12 12 11 9 8 8 8 8 7 7 6 5 4 4 4 3 3 4 3 3 4 4 3 3 3 2 2 1 1 1 1 1 1 1 1 2
5 2 1 3 2 3 6 7 8 8 10 11 10 11 11 10 9 8 7 8 7 7 7 5 5 3 3 2 2 2 2 1 2 3 5 6 5 4 3 2 2 1 1 1 1 1 1 1 1
4 2 2 3 1 3 4 4 5 7 10 12 14 14 14 11 10 9 8 6 6 6 6 5 4 3 3 2 2 2 2 2 2 3 5 6 7 5 4 3 2 1 1 2 2 1 0 1 1
4 6 6 4 1 4 5 1 2 2 3 6 8 10 13 15 14 11 9 7 6 6 5 4 3 3 3 3 3 3 3 3 3 3 3 4 6 6 5 4 3 3 2 2 2 2 0 1 1
4 5 6 4 4 1 3 2 3 4 4 5 6 8 10 12 12 10 9 8 7 6 6 5 4 4 3 3 4 4 3 2 1 1 2 3 5 5 6 6 5 4 3 3 3 2 0 1 1
4 3 4 3 5 3 2 3 3 1 3 5 6 8 10 10 11 11 10 8 7 7 6 5 5 4 4 4 4 4 4 3 2 3 3 4 4 5 5 5 4 3 3 3 3 3 2 1 0
3 4 6 6 5 2 3 4 2 1 4 4 5 7 8 9 10 10 9 9 7 7 6 5 5 4 4 5 5 5 5 4 5 4 3 3 3 4 5 5 4 3 3 3 3 3 3 2 1
4 5 4 4 4 2 2 2 2 2 3 5 6 6 8 7 9 10 10 9 8 8 6 5 6 4 4 5 5 5 5 5 5 3 3 3 2 3 4 4 4 3 3 3 3 3 3 2 2
2 7 6 4 3 2 2 1 2 2 1 4 7 8 9 8 7 9 10 10 9 8 7 6 6 4 4 5 5 4 5 4 3 3 3 3 2 1 2 4 4 4 5 4 3 3 3 2 2
3 2 6 6 2 1 1 1 1 3 4 5 6 7 9 8 8 9 8 8 8 7 6 6 6 5 4 5 5 4 4 4 4 4 3 2 2 2 3 4 4 4 5 4 3 3 3 2 2
5 5 6 5 3 1 1 1 2 2 3 5 6 7 7 8 8 9 9 8 7 6 5 5 5 5 4 4 4 4 4 4 4 4 4 3 3 3 4 4 4 4 4 4 4 3 3 3 3
3 3 5 4 5 5 2 3 3 5 6 7 7 8 8 8 7 8 7 7 6 5 5 4 4 4 3 3 4 4 4 4 4 4 3 3 3 3 3 4 4 4 5 4 4 4 4 3 3
3 2 5 4 2 3 4 3 3 3 5 7 8 8 8 8 7 7 7 7 6 5 5 4 3 3 3 3 4 4 3 4 4 3 3 3 3 3 3 3 4 4 5 5 4 4 4 4 4
Wind_Direction
303 296 51 48 53 47 266 256 231 356 52 73 91 96 94 81 111 131 133 133 133 139 144 142 138 135 132 128 124 121 118 115 111 109 106 106 106 106 107 109 111 112 113 113 112 111 110 110 111
303 319 53 59 83 28 272 254 222 106 126 111 82 82 80 73 83 108 119 132 135 137 140 142 140 138 136 133 130 128 125 121 118 115 112 111 111 111 111 113 115 115 116 116 115 114 113 113 113
294 44 78 74 126 193 249 249 118 101 96 91 84 63 72 93 104 113 133 133 129 131 136 141 141 140 139 137 135 134 132 129 126 123 120 118 117 117 117 117 118 119 119 119 119 118 117 115 114
38 41 51 71 255 238 233 247 132 109 70 66 96 71 59 59 103 127 133 131 126 127 135 141 142 141 141 141 141 140 139 136 133 131 128 125 124 122 122 123 123 124 124 124 124 124 123 119 114
60 67 46 326 268 264 255 225 159 108 100 90 94 89 58 42 108 126 129 129 128 128 134 141 142 143 143 144 145 144 144 142 140 138 136 133 132 131 131 130 131 131 131 131 131 131 131 129 124
43 65 75 281 282 289 321 115 108 100 103 96 95 96 74 99 118 128 130 128 129 131 132 137 141 143 145 146 147 147 148 148 147 145 144 143 143 141 141 141 142 142 142 142 142 143 144 143 140
112 90 219 252 284 298 278 126 105 110 101 95 114 106 118 124 126 127 127 124 124 128 129 132 138 142 145 147 149 151 152 152 152 152 152 152 152 152 153 154 155 156 156 158 159 162 167 174 199
151 85 311 288 279 283 284 97 96 101 100 105 103 129 148 149 128 120 118 119 123 126 130 132 135 136 140 146 151 153 155 156 156 156 158 159 161 164 167 169 171 172 173 175 178 183 193 211 238
121 73 270 257 252 276 123 103 82 76 100 83 75 117 134 129 123 119 116 116 122 126 130 134 134 136 140 145 150 153 156 159 159 161 164 164 166 173 181 185 188 188 188 189 193 199 210 227 249
115 172 237 232 213 171 120 107 121 104 92 93 95 104 121 125 126 127 130 133 136 139 140 139 139 143 147 150 146 151 156 159 159 162 166 170 177 190 200 206 202 198 197 197 207 219 229 237 250
183 211 241 278 196 129 105 80 87 117 111 136 135 133 129 126 126 128 132 134 139 140 136 135 142 144 145 137 143 151 155 156 162 167 174 177 186 208 217 217 219 214 205 203 219 229 236 241 246
245 265 259 251 159 110 98 93 79 91 133 137 132 130 123 126 130 132 134 131 128 127 129 129 129 135 138 136 145 150 150 161 169 172 176 174 173 194 194 208 216 211 207 208 220 228 240 247 248
255 260 270 126 92 97 91 88 94 90 112 118 121 123 128 127 120 123 126 124 121 119 118 123 122 127 123 122 136 135 145 160 166 168 174 167 161 165 160 202 217 213 214 213 219 224 231 241 245
248 245 187 124 106 100 99 88 88 116 123 123 124 122 122 124 121 120 123 122 121 122 122 118 117 119 117 120 120 124 133 145 145 144 157 163 168 164 162 184 205 218 230 225 218 220 223 237 246
260 72 18 12 98 116 97 70 106 141 133 130 127 123 117 122 126 132 134 127 127 129 127 124 125 117 117 120 127 130 133 129 125 133 143 151 157 155 169 179 186 234 247 238 229 225 229 243 255
17 63 44 300 65 130 101 125 150 151 135 137 136 130 124 121 125 134 135 130 127 122 116 113 118 107 109 114 114 111 117 119 123 129 135 139 132 137 143 132 187 317 302 279 236 233 230 238 241
19 74 222 288 354 98 106 141 172 160 146 147 146 140 135 132 131 133 132 128 122 118 113 104 100 101 105 104 99 97 100 103 117 115 107 99 93 107 116 108 85 26 17 307 274 219 203 228 247
248 225 215 238 294 96 111 149 169 166 156 155 153 148 146 147 148 139 127 120 113 109 106 102 97 94 102 99 89 78 70 69 78 87 85 73 55 61 76 69 35 29 41 338 280 235 195 213 234
218 221 232 254 246 129 135 152 173 170 164 158 158 158 155 154 147 137 131 120 110 101 99 95 91 91 96 101 107 101 89 72 61 61 57 53 48 46 47 36 23 19 19 323 279 235 225 234 236
227 208 226 268 240 138 136 157 171 177 175 169 169 169 163 157 153 151 142 130 121 114 105 98 95 89 88 106 126 137 132 104 83 63 52 48 46 42 47 44 26 2 15 12 21 35 282 272 199
240 196 204 201 70 82 105 102 179 201 157 166 176 172 170 168 164 160 150 141 127 117 114 108 90 80 76 88 97 92 77 64 49 42 35 36 46 49 50 44 39 30 39 5 8 22 160 255 278
248 218 181 170 123 116 134 192 257 194 199 191 185 178 172 172 163 159 153 147 137 124 109 97 84 75 69 85 104 110 109 103 89 70 43 29 35 42 48 42 40 31 28 17 3 17 339 181 291
216 203 166 146 125 89 53 132 281 182 202 209 195 185 173 170 169 163 157 150 135 121 111 100 86 69 63 79 98 102 98 100 89 71 54 33 28 36 40 42 34 25 22 24 20 19 22 39 155
151 67 47 52 75 86 243 152 266 236 225 210 195 184 172 166 167 158 146 137 128 120 113 105 93 75 65 69 75 91 100 96 88 72 57 35 25 18 24 39 32 25 21 20 14 18 24 21 18
65 81 38 11 21 248 264 128 236 255 223 189 173 163 147 148 161 154 147 144 139 131 126 115 105 88 74 73 69 77 90 94 94 90 76 62 38 19 9 25 22 16 12 15 16 13 13 9 2
177 134 150 186 211 269 338 167 251 275 212 139 134 144 136 134 143 150 152 144 140 139 137 128 116 101 86 82 76 73 80 84 83 84 87 77 67 34 10 19 19 16 21 24 20 15 3 11 6
119 115 158 134 131 88 291 268 318 44 63 91 106 115 128 132 139 144 143 135 135 139 140 133 123 110 100 95 91 77 73 76 76 71 70 65 44 28 29 23 19 19 25 26 23 20 2 11 7
125 139 91 103 136 193 283 269 257 236 176 133 130 136 133 130 133 141 138 136 138 139 134 125 119 118 111 103 101 93 73 72 71 64 55 46 34 35 28 23 24 23 25 26 27 12 3 19 358
50 65 99 112 143 152 209 259 244 205 175 157 151 149 144 135 131 136 137 136 132 123 120 116 113 105 99 97 93 87 75 67 63 57 48 40 30 29 31 24 26 30 28 23 26 15 8 9 354
118 154 138 140 187 154 154 262 310 163 155 148 144 144 143 135 130 129 127 120 118 120 118 110 107 105 105 107 97 91 80 69 62 45 31 34 37 35 36 38 38 33 26 18 21 12 8 6 353
Height
1517 1518 1518 1519 1522 1534 1533 1519 1507 1502 1503 1504 1504 1507 1513 1520 1526 1536 1534 1536 1540 1542 1546 1548 1550 1552 1553 1554 1556 1557 1558 1559 1560 1562 1563 1564 1565 1566 1568 1569 1570 1571 1571 1572 1572 1573 1574 1574 1574
1517 1518 1520 1520 1530 1542 1534 1514 1506 1502 1505 1504 1507 1510 1514 1523 1526 1529 1532 1537 1541 1543 1546 1549 1551 1552 1554 1555 1557 1558 1560 1561 1562 1563 1564 1565 1566 1568 1569 1570 1570 1571 1572 1573 1573 1574 1574 1575 1576
1517 1518 1520 1522 1531 1536 1524 1509 1504 1505 1506 1503 1509 1514 1519 1525 1528 1530 1533 1537 1541 1544 1547 1549 1551 1553 1555 1556 1558 1559 1561 1562 1563 1564 1566 1567 1567 1568 1569 1570 1571 1572 1573 1573 1574 1575 1575 1576 1576
1518 1519 1520 1527 1528 1521 1513 1507 1505 1504 1507 1507 1510 1518 1524 1528 1529 1531 1535 1538 1541 1544 1547 1550 1552 1554 1555 1557 1559 1560 1562 1563 1564 1565 1567 1568 1569 1569 1570 1571 1572 1572 1573 1574 1574 1575 1576 1577 1577
1518 1519 1524 1531 1524 1513 1505 1502 1504 1503 1508 1511 1511 1522 1528 1531 1531 1534 1537 1540 1542 1545 1548 1550 1553 1555 1556 1558 1559 1561 1562 1564 1565 1566 1567 1568 1569 1570 1571 1572 1572 1573 1574 1574 1575 1575 1576 1577 1578
1519 1520 1532 1535 1523 1511 1506 1502 1502 1505 1511 1513 1516 1523 1532 1534 1534 1537 1539 1542 1544 1546 1549 1551 1553 1555 1557 1558 1560 1561 1563 1564 1566 1567 1568 1569 1570 1571 1572 1572 1573 1573 1574 1575 1575 1576 1576 1577 1578
1520 1524 1529 1526 1521 1513 1507 1504 1504 1506 1510 1514 1517 1523 1532 1535 1536 1538 1541 1543 1546 1548 1550 1552 1554 1556 1558 1559 1560 1562 1563 1564 1566 1567 1568 1569 1570 1571 1572 1573 1573 1573 1574 1575 1575 1576 1577 1577 1578
1518 1523 1525 1524 1518 1514 1506 1505 1507 1507 1512 1516 1518 1522 1529 1533 1536 1539 1543 1545 1547 1549 1551 1552 1554 1556 1557 1559 1560 1561 1563 1564 1565 1566 1568 1569 1570 1571 1572 1573 1573 1573 1574 1574 1575 1575 1576 1577 1577
1518 1526 1530 1522 1515 1511 1506 1506 1510 1512 1512 1516 1518 1521 1527 1532 1536 1540 1543 1546 1548 1550 1551 1553 1554 1556 1557 1559 1560 1561 1562 1563 1564 1566 1567 1568 1569 1570 1571 1572 1573 1573 1573 1574 1574 1575 1575 1576 1577
1516 1527 1521 1511 1508 1509 1508 1507 1510 1514 1515 1519 1521 1525 1529 1533 1536 1539 1542 1545 1547 1549 1551 1552 1554 1555 1557 1558 1559 1561 1562 1563 1564 1565 1566 1568 1569 1570 1571 1571 1572 1572 1572 1573 1573 1574 1574 1575 1576
1513 1516 1510 1507 1506 1507 1508 1509 1510 1513 1518 1519 1521 1526 1530 1534 1537 1540 1543 1545 1547 1549 1551 1552 1554 1555 1556 1557 1559 1560 1561 1562 1563 1565 1566 1567 1567 1568 1569 1570 1571 1571 1571 1572 1572 1573 1573 1573 1574
1511 1508 1507 1506 1506 1506 1508 1510 1514 1514 1518 1520 1522 1526 1531 1535 1538 1540 1543 1545 1548 1549 1551 1552 1553 1555 1556 1557 1558 1559 1560 1561 1562 1563 1564 1565 1566 1566 1567 1568 1569 1570 1570 1570 1570 1571 1571 1572 1572
1509 1507 1505 1505 1505 1507 1509 1513 1516 1520 1521 1523 1526 1529 1532 1536 1539 1542 1544 1546 1548 1549 1551 1552 1553 1554 1555 1556 1557 1558 1559 1560 1561 1562 1563 1563 1564 1565 1565 1566 1567 1568 1568 1568 1568 1569 1569 1569 1570
1506 1505 1506 1506 1507 1509 1510 1517 1518 1525 1524 1526 1529 1532 1535 1538 1540 1542 1544 1546 1548 1549 1550 1551 1552 1553 1554 1555 1556 1556 1558 1558 1559 1560 1560 1561 1562 1563 1563 1564 1564 1565 1565 1566 1566 1566 1567 1567 1568
1504 1506 1508 1508 1507 1511 1512 1522 1524 1525 1525 1528 1530 1534 1536 1539 1541 1543 1544 1546 1547 1548 1550 1551 1552 1552 1553 1554 1554 1555 1556 1557 1557 1558 1558 1558 1559 1560 1561 1561 1562 1562 1563 1563 1563 1563 1564 1564 1565
1505 1511 1518 1512 1510 1511 1516 1531 1528 1527 1527 1530 1532 1534 1537 1540 1542 1544 1545 1546 1547 1548 1549 1550 1551 1551 1552 1553 1553 1554 1554 1555 1555 1555 1556 1556 1557 1557 1558 1559 1559 1560 1560 1560 1560 1561 1561 1561 1562
1515 1521 1521 1516 1510 1511 1517 1529 1528 1528 1528 1529 1532 1534 1537 1539 1541 1543 1545 1546 1547 1548 1548 1549 1550 1551 1552 1553 1553 1552 1553 1553 1553 1552 1553 1553 1553 1554 1555 1555 1556 1556 1557 1557 1557 1558 1558 1558 1559
1523 1521 1519 1519 1513 1513 1519 1525 1525 1526 1527 1529 1532 1534 1536 1538 1540 1542 1544 1545 1546 1547 1548 1549 1550 1550 1551 1551 1552 1552 1551 1551 1551 1551 1551 1551 1551 1551 1551 1552 1552 1553 1553 1554 1554 1554 1554 1555 1555
1512 1517 1519 1517 1512 1515 1520 1524 1525 1525 1527 1529 1532 1534 1536 1539 1541 1542 1543 1544 1546 1547 1548 1548 1549 1549 1549 1550 1550 1550 1549 1549 1549 1549 1548 1548 1548 1548 1548 1549 1549 1549 1549 1550 1550 1550 1551 1551 1552
1510 1516 1520 1516 1511 1515 1522 1526 1525 1525 1526 1527 1528 1531 1534 1537 1539 1541 1542 1544 1545 1546 1547 1548 1549 1548 1548 1548 1548 1549 1548 1548 1548 1547 1547 1546 1546 1546 1546 1546 1546 1546 1546 1547 1546 1546 1547 1547 1548
1508 1513 1514 1516 1514 1516 1523 1532 1531 1529 1527 1528 1528 1531 1534 1535 1537 1539 1541 1543 1544 1545 1546 1547 1548 1548 1548 1547 1547 1547 1547 1547 1546 1546 1545 1545 1545 1544 1544 1544 1543 1544 1544 1544 1543 1543 1544 1544 1545
1511 1502 1505 1510 1520 1530 1528 1542 1534 1530 1530 1529 1529 1531 1532 1534 1536 1538 1540 1542 1543 1545 1546 1547 1548 1547 1547 1546 1546 1546 1546 1545 1545 1545 1544 1544 1543 1542 1542 1542 1541 1541 1541 1540 1540 1540 1540 1541 1541
1503 1498 1503 1508 1519 1531 1531 1539 1538 1530 1531 1529 1527 1528 1530 1531 1534 1536 1539 1542 1543 1544 1545 1546 1547 1547 1546 1546 1546 1545 1545 1545 1544 1544 1543 1543 1542 1541 1540 1540 1539 1539 1538 1538 1538 1538 1538 1538 1538
1496 1502 1508 1516 1527 1541 1534 1538 1540 1534 1529 1525 1524 1526 1528 1531 1534 1536 1538 1541 1543 1544 1545 1546 1546 1546 1546 1546 1545 1545 1544 1544 1543 1543 1542 1542 1541 1540 1539 1538 1538 1537 1537 1536 1536 1535 1535 1535 1535
1499 1516 1534 1538 1546 1544 1532 1535 1538 1528 1523 1522 1522 1523 1526 1531 1533 1534 1537 1540 1542 1543 1544 1545 1545 1545 1545 1545 1545 1545 1544 1543 1543 1542 1542 1541 1540 1539 1538 1537 1536 1535 1535 1534 1534 1533 1533 1532 1532
1503 1514 1535 1544 1548 1544 1533 1536 1533 1524 1521 1520 1521 1523 1525 1530 1533 1534 1537 1538 1541 1542 1543 1544 1545 1545 1545 1545 1544 1544 1544 1543 1543 1542 1542 1541 1540 1539 1538 1537 1536 1534 1533 1533 1532 1531 1531 1530 1530
1504 1513 1515 1530 1536 1543 1540 1533 1528 1523 1522 1522 1522 1524 1526 1529 1532 1534 1536 1538 1541 1542 1543 1544 1544 1545 1545 1544 1544 1544 1544 1543 1542 1542 1541 1541 1540 1539 1538 1537 1535 1534 1533 1532 1531 1530 1529 1528 1527
1500 1506 1520 1531 1542 1547 1540 1536 1535 1527 1526 1525 1524 1525 1527 1529 1532 1534 1536 1539 1541 1542 1543 1544 1545 1545 1544 1544 1544 1544 1543 1543 1542 1542 1541 1541 1540 1539 1538 1537 1535 1534 1532 1531 1530 1529 1528 1527 1525
1504 1509 1517 1529 1532 1542 1547 1542 1524 1522 1522 1523 1525 1526 1528 1530 1532 1535 1537 1538 1541 1542 1543 1544 1544 1544 1544 1544 1544 1543 1543 1543 1543 1542 1541 1541 1540 1539 1538 1537 1535 1534 1532 1531 1529 1528 1527 1525 1523
1501 1506 1514 1527 1531 1533 1540 1540 1521 1520 1522 1523 1525 1527 1529 1531 1533 1535 1537 1538 1540 1542 1543 1543 1544 1544 1544 1544 1544 1543 1543 1543 1543 1542 1542 1541 1540 1539 1538 1537 1535 1534 1532 1531 1529 1527 1525 1524 1522